Date String (YYYY-MM-DD hh:mm:ss) UTC,Instrument flags,Ambient pressure (hPa),Sample flow (lpm),Bypass flow (lpm),Sample temperature (°C),Ambient temperature (°C),ASC tube jacket temperature (°C),LED temperature (°C),Box temperature (°C),Sample RH (%),Span deviation,Mass concentration (μg/m³),Mass concentration (μg/m³),Mass concentration (μg/m³)
DateTimeUTC,F1_M11,P_M11,Q1_M11,Q2_M11,T1_M11,T2_M11,T3_M11,T4_M11,T5_M11,U1_M11,ZSPAN_M11,X0_M11,X2_M11,X1_M11
2022-02-01 09:00:00,,0819.2,5.02,0.00,21.3,20.5,00.0,30.5,22.8,11.1,0000.0,0010.71,0003.46,0002.63
2022-02-01 09:01:00,,0819.2,4.99,0.00,21.3,20.5,00.0,30.5,22.8,11.2,0000.0,0010.67,0003.48,0002.64
2022-02-01 09:02:00,,0819.3,5.01,0.00,21.2,20.5,00.0,30.5,22.8,11.3,0000.0,0010.59,0003.54,0002.64
2022-02-01 09:03:00,,0819.4,4.99,0.00,21.3,21.2,00.0,30.5,23.0,11.3,0000.0,0010.42,0003.57,0002.64
2022-02-01 09:04:00,,0819.4,5.00,0.00,21.5,22.2,00.0,30.5,23.4,11.2,0000.0,0010.29,0003.59,0002.65
2022-02-01 09:05:00,,0819.4,4.99,0.00,21.6,22.5,00.0,30.6,23.6,11.1,0000.0,0010.20,0003.62,0002.64
2022-02-01 09:06:00,,0819.4,5.00,0.00,21.7,22.2,00.0,30.6,23.6,11.1,0000.0,0009.64,0003.60,0002.64
2022-02-01 09:07:00,,0819.4,5.00,0.00,21.7,21.9,00.0,30.6,23.4,11.1,0000.0,0009.57,0003.56,0002.61
2022-02-01 09:08:00,,0819.4,5.01,0.00,21.6,21.6,00.0,30.6,23.3,11.1,0000.0,0009.88,0003.54,0002.59
2022-02-01 09:09:00,,0819.4,4.99,0.00,21.6,21.4,00.0,30.6,23.3,11.2,0000.0,0010.35,0003.52,0002.56
2022-02-01 09:10:00,,0819.5,5.00,0.00,21.6,21.3,00.0,30.6,23.3,11.2,0000.0,0009.45,0003.53,0002.53
2022-02-01 09:11:00,,0819.6,5.01,0.00,21.6,21.2,00.0,30.6,23.2,11.2,0000.0,0009.77,0003.52,0002.52
2022-02-01 09:12:00,,0819.6,4.98,0.00,21.6,21.2,00.0,30.6,23.2,11.1,0000.0,0010.59,0003.52,0002.52
2022-02-01 09:13:00,,0819.6,5.00,0.00,21.6,21.1,00.0,30.6,23.2,11.2,0000.0,0011.24,0003.50,0002.51
2022-02-01 09:14:00,,0819.5,5.00,0.00,21.5,21.0,00.0,30.6,23.2,11.1,0000.0,0011.30,0003.47,0002.51
2022-02-01 09:15:00,,0819.5,4.99,0.00,21.5,20.9,00.0,30.6,23.2,11.2,0000.0,0011.37,0003.46,0002.51
2022-02-01 09:16:00,,0819.5,5.01,0.00,21.5,20.9,00.0,30.6,23.1,11.2,0000.0,0011.72,0003.43,0002.49
2022-02-01 09:17:00,,0819.4,4.99,0.00,21.4,20.8,00.0,30.6,23.0,11.2,0000.0,0012.14,0003.41,0002.46
2022-02-01 09:18:00,,0819.5,5.00,0.00,21.4,20.7,00.0,30.5,22.9,11.3,0000.0,0012.52,0003.44,0002.46
2022-02-01 09:19:00,,0819.7,5.01,0.00,21.3,20.6,00.0,30.5,22.8,11.4,0000.0,0012.17,0003.49,0002.46
2022-02-01 09:20:00,,0819.7,4.99,0.00,21.3,20.6,00.0,30.5,22.8,11.4,0000.0,0011.62,0003.49,0002.46
2022-02-01 09:21:00,,0819.7,5.01,0.00,21.3,21.2,00.0,30.5,23.1,11.3,0000.0,0011.82,0003.48,0002.45
2022-02-01 09:22:00,,0819.7,4.99,0.00,21.5,22.1,00.0,30.6,23.4,11.2,0000.0,0011.87,0003.50,0002.43
2022-02-01 09:23:00,,0819.6,4.99,0.00,21.7,22.6,00.0,30.6,23.6,11.1,0000.0,0011.58,0003.47,0002.38
2022-02-01 09:24:00,,0819.6,5.00,0.00,21.7,22.2,00.0,30.6,23.5,11.1,0000.0,0010.85,0003.45,0002.34
2022-02-01 09:25:00,,0819.7,5.01,0.00,21.7,21.9,00.0,30.6,23.4,11.1,0000.0,0010.80,0003.42,0002.29
2022-02-01 09:26:00,,0819.7,5.00,0.00,21.6,21.6,00.0,30.6,23.2,11.1,0000.0,0011.38,0003.41,0002.24
2022-02-01 09:27:00,,0819.7,5.02,0.00,21.5,21.2,00.0,30.6,23.1,11.2,0000.0,0011.38,0003.40,0002.20
2022-02-01 09:28:00,,0819.7,5.00,0.00,21.4,21.0,00.0,30.6,23.0,11.3,0000.0,0012.10,0003.41,0002.19
2022-02-01 09:29:00,,0819.8,5.01,0.00,21.4,20.8,00.0,30.5,22.9,11.2,0000.0,0012.48,0003.43,0002.16
2022-02-01 09:30:00,,0819.8,5.00,0.00,21.3,20.6,00.0,30.5,22.8,11.2,0000.0,0012.07,0003.38,0002.15
2022-02-01 09:31:00,,0820.0,5.00,0.00,21.2,20.4,00.0,30.4,22.7,11.3,0000.0,0012.00,0003.35,0002.12
2022-02-01 09:32:00,,0819.9,4.99,0.00,21.2,20.9,00.0,30.5,22.8,11.4,0000.0,0012.00,0003.33,0002.10
2022-02-01 09:33:00,,0819.9,5.00,0.00,21.3,21.8,00.0,30.5,23.2,11.3,0000.0,0012.01,0003.32,0002.07
2022-02-01 09:34:00,,0819.9,4.99,0.00,21.5,22.6,00.0,30.5,23.5,11.2,0000.0,0012.16,0003.31,0002.06
2022-02-01 09:35:00,,0819.9,5.01,0.00,21.7,22.8,00.0,30.6,23.6,11.2,0000.0,0012.79,0003.27,0002.06
2022-02-01 09:36:00,,0819.9,5.00,0.00,21.6,22.3,00.0,30.6,23.4,11.1,0000.0,0013.08,0003.29,0002.08
2022-02-01 09:37:00,,0819.9,5.00,0.00,21.6,21.9,00.0,30.6,23.1,11.1,0000.0,0012.72,0003.25,0002.07
2022-02-01 09:38:00,,0819.8,4.99,0.00,21.5,21.5,00.0,30.6,23.0,11.2,0000.0,0012.25,0003.24,0002.06
2022-02-01 09:39:00,,0819.9,5.01,0.00,21.4,21.1,00.0,30.5,22.8,11.2,0000.0,0011.11,0003.24,0002.05
2022-02-01 09:40:00,,0819.9,4.99,0.00,21.3,20.8,00.0,30.5,22.7,11.2,0000.0,0010.50,0003.23,0002.03
2022-02-01 09:41:00,,0819.9,5.01,0.00,21.2,20.6,00.0,30.4,22.6,11.4,0000.0,0010.94,0003.23,0002.01
2022-02-01 09:42:00,,0819.9,4.99,0.00,21.1,20.3,00.0,30.4,22.5,11.4,0000.0,0010.95,0003.22,0002.01
2022-02-01 09:43:00,,0819.9,5.01,0.00,21.1,20.6,00.0,30.4,22.6,11.3,0000.0,0011.22,0003.24,0002.01
2022-02-01 09:44:00,,0819.9,4.98,0.00,21.2,21.5,00.0,30.4,22.9,11.3,0000.0,0010.82,0003.24,0002.01
2022-02-01 09:45:00,,0819.9,5.02,0.00,21.4,22.4,00.0,30.5,23.3,11.1,0000.0,0010.49,0003.26,0002.01
2022-02-01 09:46:00,,0819.9,4.99,0.00,21.6,22.7,00.0,30.5,23.5,11.0,0000.0,0010.14,0003.27,0001.99
2022-02-01 09:47:00,,0819.9,5.00,0.00,21.6,22.4,00.0,30.5,23.3,11.0,0000.0,0009.77,0003.24,0001.95
2022-02-01 09:48:00,,0819.9,5.00,0.00,21.5,21.9,00.0,30.5,23.1,11.0,0000.0,0009.54,0003.26,0001.93
2022-02-01 09:49:00,,0819.9,5.01,0.00,21.4,21.4,00.0,30.5,22.9,11.0,0000.0,0009.72,0003.28,0001.93
2022-02-01 09:50:00,,0820.0,5.00,0.00,21.3,21.1,00.0,30.4,22.8,11.1,0000.0,0009.82,0003.29,0001.91
2022-02-01 09:51:00,,0820.1,5.01,0.00,21.2,20.7,00.0,30.4,22.6,11.1,0000.0,0010.72,0003.30,0001.90
2022-02-01 09:52:00,,0820.1,4.99,0.00,21.0,20.4,00.0,30.3,22.4,11.2,0000.0,0010.93,0003.32,0001.88
2022-02-01 09:53:00,,0820.0,4.99,0.00,21.0,20.6,00.0,30.3,22.5,11.2,0000.0,0011.33,0003.34,0001.85
2022-02-01 09:54:00,,0820.1,5.00,0.00,21.1,21.5,00.0,30.4,22.9,11.3,0000.0,0010.84,0003.33,0001.83
2022-02-01 09:55:00,,0820.1,4.99,0.00,21.3,22.4,00.0,30.4,23.2,11.1,0000.0,0010.72,0003.30,0001.80
2022-02-01 09:56:00,,0820.2,5.01,0.00,21.5,22.8,00.0,30.4,23.4,11.0,0000.0,0011.39,0003.25,0001.79
2022-02-01 09:57:00,,0820.2,5.01,0.00,21.5,22.4,00.0,30.5,23.2,11.0,0000.0,0011.28,0003.26,0001.77
2022-02-01 09:58:00,,0820.3,5.00,0.00,21.4,21.9,00.0,30.4,23.0,11.0,0000.0,0011.16,0003.28,0001.76
2022-02-01 09:59:00,,0820.2,4.99,0.00,21.3,21.5,00.0,30.4,22.9,11.0,0000.0,0010.80,0003.25,0001.76
